Weather History for KHLC - November, 2012

Change the Weather History Date:

Sunday, November 18, 2012

  Actual Average Record
Temperature  
Mean Temperature 49 °F 39 °F  
Max Temperature 65 °F 52 °F 80 °F (1908)
Min Temperature 33 °F 26 °F 2 °F (2014)
Degree Days  
Heating Degree Days 15    
Moisture  
Dew Point 35 °F    
Average Humidity 66    
Maximum Humidity 89    
Minimum Humidity 38    
Precipitation  
Precipitation 0.00 in 0.03 in 0.32 in (2004)
Month to date precipitation 0.00 0.66  
Year to date precipitation 9.74 21.94  
Sea Level Pressure  
Sea Level Pressure 30.00 in    
Wind  
Wind Speed 5 mph (South)    
Max Wind Speed 20 mph    
Max Gust Speed 25 mph    
Visibility 10 miles    
Events      
T = Trace of Precipitation, MM = Missing Value Source: NWS Daily Summary

Daily Weather History Graph

Daily Weather History Graph

Search for Another Location

Airport or City:

Trip Planner

Search our weather history database for the weather conditions in past years. The results will help you decide how hot, cold, wet, or windy it might be!

Date:

Astronomy

Nov. 18, 2012 Rise Set
Actual Time 7:26 AM CST 5:21 PM CST
Civil Twilight 6:58 AM CST 5:50 PM CST
Nautical Twilight 6:25 AM CST 6:23 PM CST
Astronomical Twilight 5:53 AM CST 6:55 PM CST
Moon 11:55 AM CST (11/18) 10:43 PM CST (11/18)
Length of Visible Light 10h 52m
Length of Day
9h 54m
Waxing Crescent, 30% of the Moon is Illuminated
Nov 18
Waxing Crescent
Nov 20
First Quarter
Nov 28
Full
Dec 6
Last Quarter
Dec 13
New

Hourly Weather History & Observations

Time (CST) Temp. Windchill Dew Point Humidity Pressure Visibility Wind Dir Wind Speed Gust Speed Precip Events Conditions
12:53 AM 42.1 °F - 37.0 °F 82% 30.06 in 10.0 mi Calm Calm - N/A   Clear
1:53 AM 42.1 °F - 37.0 °F 82% 30.05 in 10.0 mi Calm Calm - N/A   Clear
2:53 AM 41.0 °F 38.0 °F 37.0 °F 86% 30.05 in 10.0 mi SSE 4.6 mph - N/A   Clear
3:53 AM 37.9 °F - 35.1 °F 89% 30.04 in 10.0 mi Calm Calm - N/A   Clear
4:53 AM 37.0 °F 34.5 °F 34.0 °F 89% 30.04 in 10.0 mi ESE 3.5 mph - N/A   Clear
5:53 AM 36.0 °F 31.1 °F 32.0 °F 86% 30.06 in 10.0 mi East 5.8 mph - N/A   Clear
6:53 AM 36.0 °F 31.1 °F 32.0 °F 86% 30.06 in 10.0 mi East 5.8 mph - N/A   Clear
8:53 AM 41.0 °F 39.0 °F 32.0 °F 70% 30.05 in 10.0 mi East 3.5 mph - N/A   Clear
9:53 AM 46.0 °F 41.4 °F 30.9 °F 56% 30.02 in 10.0 mi SSE 9.2 mph - N/A   Clear
10:53 AM 52.0 °F - 33.1 °F 49% 30.01 in 10.0 mi SSE 12.7 mph 19.6 mph N/A   Clear
11:53 AM 57.9 °F - 35.1 °F 42% 29.97 in 10.0 mi South 19.6 mph 24.2 mph N/A   Clear
12:53 PM 59.0 °F - 36.0 °F 42% 29.95 in 10.0 mi South 16.1 mph - N/A   Clear
1:53 PM 64.0 °F - 37.9 °F 38% 29.91 in 10.0 mi South 16.1 mph 25.3 mph N/A   Clear
2:53 PM 63.0 °F - 37.9 °F 40% 29.91 in 10.0 mi South 16.1 mph 24.2 mph N/A   Clear
3:53 PM 63.0 °F - 37.9 °F 40% 29.92 in 10.0 mi South 10.4 mph - N/A   Clear
4:53 PM 62.1 °F - 39.0 °F 43% 29.94 in 10.0 mi South 8.1 mph - N/A   Clear
5:53 PM 54.0 °F - 35.1 °F 49% 29.97 in 10.0 mi Calm Calm - N/A   Clear
6:53 PM 43.0 °F 40.3 °F 32.0 °F 65% 30.00 in 10.0 mi WSW 4.6 mph - N/A   Clear
8:53 PM 39.9 °F 35.1 °F 33.1 °F 77% 30.02 in 10.0 mi West 6.9 mph - N/A   Clear
9:53 PM 37.9 °F 33.5 °F 33.1 °F 83% 30.03 in 10.0 mi West 5.8 mph - N/A   Clear
11:53 PM 37.0 °F 31.0 °F 32.0 °F 82% 30.01 in 10.0 mi West 8.1 mph - N/A   Clear